Big Bear Station Historical Data
Daily Summary for October 31, 2017 Units:  English    Metric   Both
« Previous Day
Next Day »
Daily Weekly Monthly Yearly Custom
  High: Low: Average:
Temperature: 60.4 °F 37.0 °F 47.8 °F
Dew Point: 39.4 °F 15.8 °F 28.7 °F
Humidity: 74 % 25 % 49 %
Wind Speed: 5.8 mph 0.0 mph 1 mph
Wind Gust: -999.0 mph - -
Wind:- - West
Pressure: 23.44 in 23.35 in -
Precipitation: 0.00 in    
Historical Graphs
 
 
Tabular Data for October 31, 2017
Time Temperature Dew Point Pressure Wind Wind Speed Wind Gust Humidity Rainfall Rate (Hourly)
00:04 42.3 °F 26.4 °F 23.37 in SSE 1.7 mph -999.0 mph 53 % 0 in
00:19 42.1 °F 26.6 °F 23.37 in Calm   -999.0 mph 54 % 0 in
00:35 41.9 °F 26.9 °F 23.37 in Calm   -999.0 mph 55 % 0 in
00:51 42.3 °F 25.9 °F 23.37 in Calm   -999.0 mph 52 % 0 in
01:06 42.3 °F 26.8 °F 23.36 in Calm   -999.0 mph 54 % 0 in
01:21 42.4 °F 26.9 °F 23.36 in Calm   -999.0 mph 54 % 0 in
01:36 42.3 °F 28.1 °F 23.36 in Calm   -999.0 mph 57 % 0 in
01:51 42.8 °F 29.9 °F 23.36 in Calm   -999.0 mph 60 % 0 in
02:07 42.8 °F 30.3 °F 23.36 in Calm   -999.0 mph 61 % 0 in
02:22 43.0 °F 29.2 °F 23.36 in Calm   -999.0 mph 58 % 0 in
02:37 43.5 °F 26.6 °F 23.36 in SSW 2.2 mph -999.0 mph 51 % 0 in
03:07 45.9 °F 20.4 °F 23.36 in Calm   -999.0 mph 36 % 0 in
03:23 46.9 °F 20.0 °F 23.35 in Calm   -999.0 mph 34 % 0 in
03:38 46.9 °F 20.7 °F 23.35 in Calm   -999.0 mph 35 % 0 in
03:53 46.8 °F 19.2 °F 23.35 in Calm   -999.0 mph 33 % 0 in
04:08 46.9 °F 19.3 °F 23.35 in Calm   -999.0 mph 33 % 0 in
04:23 47.5 °F 18.3 °F 23.35 in Calm   -999.0 mph 31 % 0 in
04:39 47.5 °F 18.3 °F 23.35 in Calm   -999.0 mph 31 % 0 in
04:54 47.3 °F 18.9 °F 23.35 in West 2.2 mph -999.0 mph 32 % 0 in
05:09 47.7 °F 19.3 °F 23.36 in Calm   -999.0 mph 32 % 0 in
05:24 46.8 °F 19.2 °F 23.36 in Calm   -999.0 mph 33 % 0 in
05:39 46.4 °F 18.1 °F 23.36 in South 1.7 mph -999.0 mph 32 % 0 in
05:55 45.9 °F 17.7 °F 23.36 in Calm   -999.0 mph 32 % 0 in
06:10 45.3 °F 17.9 °F 23.36 in Calm   -999.0 mph 33 % 0 in
06:25 44.6 °F 15.8 °F 23.36 in SSE 1.7 mph -999.0 mph 31 % 0 in
06:40 44.1 °F 18.2 °F 23.36 in Calm   -999.0 mph 35 % 0 in
06:55 43.5 °F 19.6 °F 23.37 in Calm   -999.0 mph 38 % 0 in
07:11 43.0 °F 20.3 °F 23.37 in Calm   -999.0 mph 40 % 0 in
07:26 42.8 °F 23.4 °F 23.37 in Calm   -999.0 mph 46 % 0 in
07:41 42.3 °F 22.5 °F 23.37 in South 1.7 mph -999.0 mph 45 % 0 in
07:56 42.1 °F 18.3 °F 23.38 in Calm   -999.0 mph 38 % 0 in
08:12 41.5 °F 20.7 °F 23.39 in Calm   -999.0 mph 43 % 0 in
08:27 41.5 °F 21.7 °F 23.40 in Calm   -999.0 mph 45 % 0 in
08:42 41.5 °F 25.6 °F 23.40 in Calm   -999.0 mph 53 % 0 in
08:58 42.6 °F 29.7 °F 23.40 in Calm   -999.0 mph 60 % 0 in
09:13 43.2 °F 31.8 °F 23.40 in Calm   -999.0 mph 64 % 0 in
09:28 44.2 °F 30.8 °F 23.40 in Calm   -999.0 mph 59 % 0 in
09:43 45.7 °F 33.4 °F 23.40 in Calm   -999.0 mph 62 % 0 in
09:59 47.5 °F 33.9 °F 23.40 in Calm   -999.0 mph 59 % 0 in
10:14 49.3 °F 26.6 °F 23.40 in Calm   -999.0 mph 41 % 0 in
10:29 53.6 °F 24.4 °F 23.40 in WNW 1.7 mph -999.0 mph 32 % 0 in
10:44 55.8 °F 23.2 °F 23.40 in WNW 4.2 mph -999.0 mph 28 % 0 in
10:59 57.0 °F 21.5 °F 23.40 in WSW 2.2 mph -999.0 mph 25 % 0 in
11:15 57.4 °F 23.7 °F 23.40 in NW 3.2 mph -999.0 mph 27 % 0 in
11:30 56.7 °F 32.0 °F 23.40 in NW 3.7 mph -999.0 mph 39 % 0 in
11:45 56.3 °F 35.8 °F 23.40 in NE 4.2 mph -999.0 mph 46 % 0 in
12:01 56.8 °F 35.7 °F 23.40 in West 3.7 mph -999.0 mph 45 % 0 in
12:16 57.6 °F 35.3 °F 23.40 in WNW 3.7 mph -999.0 mph 43 % 0 in
12:32 59.0 °F 32.1 °F 23.39 in NW 4.7 mph -999.0 mph 36 % 0 in
12:47 59.9 °F 35.5 °F 23.39 in NW 5.8 mph -999.0 mph 40 % 0 in
13:03 60.4 °F 34.0 °F 23.39 in WNW 4.2 mph -999.0 mph 37 % 0 in
13:18 60.1 °F 36.3 °F 23.38 in NW 4.7 mph -999.0 mph 41 % 0 in
13:33 59.7 °F 36.6 °F 23.38 in NW 3.7 mph -999.0 mph 42 % 0 in
13:49 59.9 °F 37.3 °F 23.38 in NW 4.7 mph -999.0 mph 43 % 0 in
14:04 59.7 °F 37.2 °F 23.37 in NW 3.2 mph -999.0 mph 43 % 0 in
14:19 59.4 °F 39.2 °F 23.37 in North 3.7 mph -999.0 mph 47 % 0 in
14:35 57.9 °F 39.4 °F 23.37 in NW 2.7 mph -999.0 mph 50 % 0 in
14:50 58.1 °F 39.0 °F 23.37 in NNW 3.2 mph -999.0 mph 49 % 0 in
15:05 56.8 °F 38.4 °F 23.37 in West 1.1 mph -999.0 mph 50 % 0 in
15:20 55.6 °F 37.8 °F 23.37 in East 3.2 mph -999.0 mph 51 % 0 in
15:35 55.6 °F 33.4 °F 23.38 in WNW 2.7 mph -999.0 mph 43 % 0 in
15:51 55.8 °F 33.0 °F 23.38 in NNW 1.7 mph -999.0 mph 42 % 0 in
16:06 55.8 °F 32.4 °F 23.38 in NW 2.2 mph -999.0 mph 41 % 0 in
16:21 55.8 °F 32.4 °F 23.38 in NW 2.2 mph -999.0 mph 41 % 0 in
16:37 55.4 °F 36.0 °F 23.38 in Calm   -999.0 mph 48 % 0 in
16:52 55.0 °F 35.7 °F 23.38 in Calm   -999.0 mph 48 % 0 in
17:07 54.3 °F 35.5 °F 23.38 in Calm   -999.0 mph 49 % 0 in
17:22 53.2 °F 35.0 °F 23.38 in Calm   -999.0 mph 50 % 0 in
17:37 52.3 °F 34.7 °F 23.38 in Calm   -999.0 mph 51 % 0 in
17:53 51.1 °F 34.1 °F 23.38 in Calm   -999.0 mph 52 % 0 in
18:08 49.8 °F 33.3 °F 23.38 in Calm   -999.0 mph 53 % 0 in
18:23 48.7 °F 32.8 °F 23.39 in Calm   -999.0 mph 54 % 0 in
18:38 47.8 °F 32.4 °F 23.39 in Calm   -999.0 mph 55 % 0 in
18:53 47.3 °F 32.4 °F 23.40 in Calm   -999.0 mph 56 % 0 in
19:09 46.4 °F 32.0 °F 23.40 in Calm   -999.0 mph 57 % 0 in
19:24 45.3 °F 31.8 °F 23.41 in Calm   -999.0 mph 59 % 0 in
19:40 44.6 °F 32.4 °F 23.41 in Calm   -999.0 mph 62 % 0 in
19:55 44.2 °F 32.0 °F 23.41 in Calm   -999.0 mph 62 % 0 in
20:25 43.2 °F 31.5 °F 23.41 in Calm   -999.0 mph 63 % 0 in
20:40 42.3 °F 31.4 °F 23.41 in Calm   -999.0 mph 65 % 0 in
20:56 41.7 °F 30.8 °F 23.42 in Calm   -999.0 mph 65 % 0 in
21:11 41.0 °F 30.1 °F 23.42 in Calm   -999.0 mph 65 % 0 in
21:26 40.5 °F 30.0 °F 23.42 in Calm   -999.0 mph 66 % 0 in
21:41 39.9 °F 29.5 °F 23.43 in Calm   -999.0 mph 66 % 0 in
21:57 39.6 °F 29.9 °F 23.43 in Calm   -999.0 mph 68 % 0 in
22:12 39.2 °F 29.2 °F 23.43 in Calm   -999.0 mph 67 % 0 in
22:27 38.8 °F 28.8 °F 23.44 in Calm   -999.0 mph 67 % 0 in
22:43 38.5 °F 29.2 °F 23.44 in Calm   -999.0 mph 69 % 0 in
22:58 38.1 °F 30.5 °F 23.43 in Calm   -999.0 mph 74 % 0 in
23:13 37.6 °F 29.4 °F 23.43 in Calm   -999.0 mph 72 % 0 in
23:28 37.2 °F 28.7 °F 23.43 in Calm   -999.0 mph 71 % 0 in
23:44 37.2 °F 29.7 °F 23.43 in Calm   -999.0 mph 74 % 0 in
23:59 37.0 °F 29.5 °F 23.43 in Calm   -999.0 mph 74 % 0 in
Big Bear CA Weather
Compliments of Weather Underground - 1.5 mb